RYR9MJ LEMH-EGCC

Flight info

Callsign RYR9MJ
Flight time N/A
Altitude 36000
Route MEROS N853 LUMAS DCT SOFFY DCT MRM DCT MTL DCT ETREK DCT MADOT DCT MOPEM DCT CACHI DCT AVLON DCT OKRIX DCT BRY DCT CLM DCT KOPOR DCT VESAN DCT RATUK DCT SOVAT L613 SANDY UN57 WELIN T420 ELVOS
Aircraft B738/M-SDE2E3FGHIRWXY/LB1

Departure

Time 2026-04-25 13:14
Airport Menorca Airport (LEMH)

Arrival

Time N/A
Airport Manchester Airport (EGCC)
Time Latitude Longitude Altitude Speed Heading
2026-04-25 12:58 39.86424 4.22398 302 ft 0 kts 99°
2026-04-25 13:09 39.86429 4.22342 301 ft 5 kts 75°
2026-04-25 13:09 39.86422 4.22322 303 ft 5 kts 37°
2026-04-25 13:10 39.86417 4.22316 303 ft 2 kts 11°
2026-04-25 13:10 39.86440 4.22321 303 ft 6 kts 11°
2026-04-25 13:10 39.86496 4.22323 304 ft 11 kts 358°
2026-04-25 13:10 39.86570 4.22322 304 ft 12 kts
2026-04-25 13:11 39.86672 4.22307 306 ft 17 kts 343°
2026-04-25 13:11 39.86799 4.22257 306 ft 20 kts 346°
2026-04-25 13:11 39.86947 4.22246 308 ft 23 kts
2026-04-25 13:11 39.87117 4.22279 310 ft 26 kts
2026-04-25 13:12 39.87237 4.22306 311 ft 1 kts 10°
2026-04-25 13:12 39.87258 4.22310 311 ft 6 kts
2026-04-25 13:12 39.87313 4.22319 312 ft 10 kts
2026-04-25 13:12 39.87339 4.22323 312 ft 12 kts
2026-04-25 13:13 39.87397 4.22173 313 ft 16 kts 262°
2026-04-25 13:13 39.87346 4.22093 313 ft 20 kts 192°
2026-04-25 13:13 39.86963 4.22007 309 ft 92 kts 189°
2026-04-25 13:13 39.86435 4.21902 299 ft 134 kts 188°
2026-04-25 13:14 39.85372 4.21679 568 ft 165 kts 188°
2026-04-25 13:14 39.84263 4.21446 1450 ft 161 kts 187°
2026-04-25 13:14 39.83116 4.21200 2092 ft 180 kts 188°
2026-04-25 13:14 39.81765 4.20912 2349 ft 210 kts 188°
2026-04-25 13:15 39.80252 4.20589 2613 ft 228 kts 188°
2026-04-25 13:15 39.78601 4.20239 2820 ft 251 kts 188°
2026-04-25 13:15 39.76833 4.20105 3384 ft 261 kts 167°
2026-04-25 13:15 39.75277 4.21265 4124 ft 262 kts 128°
2026-04-25 13:16 39.74558 4.23384 4926 ft 262 kts 94°
2026-04-25 13:16 39.74811 4.25708 5669 ft 264 kts 71°
2026-04-25 13:16 39.75623 4.27847 6462 ft 266 kts 60°
2026-04-25 13:16 39.76554 4.29938 7134 ft 271 kts 57°
2026-04-25 13:17 39.77724 4.31864 7895 ft 273 kts 47°
2026-04-25 13:17 39.79130 4.33567 8539 ft 280 kts 39°
2026-04-25 13:17 39.80770 4.34980 9230 ft 285 kts 29°
2026-04-25 13:17 39.82587 4.36025 10023 ft 288 kts 19°
2026-04-25 13:18 39.84550 4.36665 10567 ft 298 kts
2026-04-25 13:18 39.86696 4.36855 10729 ft 321 kts 359°
2026-04-25 13:18 39.88972 4.36488 11057 ft 337 kts 347°
2026-04-25 13:18 39.91212 4.35528 11705 ft 342 kts 336°
2026-04-25 13:19 39.93265 4.34019 12409 ft 345 kts 326°
2026-04-25 13:19 39.95068 4.31942 13178 ft 349 kts 314°
2026-04-25 13:19 39.96521 4.29382 13887 ft 355 kts 302°
2026-04-25 13:19 39.97416 4.27547 14306 ft 357 kts 310°
2026-04-25 13:20 40.00039 4.25033 15100 ft 358 kts 341°
2026-04-25 13:20 40.02471 4.24371 15774 ft 359 kts 358°
2026-04-25 13:20 40.04967 4.24652 16397 ft 363 kts 11°
2026-04-25 13:20 40.07460 4.25290 17004 ft 368 kts 13°
2026-04-25 13:21 40.09983 4.25990 17611 ft 373 kts 13°
2026-04-25 13:21 40.12538 4.26706 18221 ft 378 kts 13°
2026-04-25 13:21 40.15129 4.27423 18775 ft 383 kts 13°
2026-04-25 13:21 40.17745 4.28133 19375 ft 385 kts 12°
2026-04-25 13:22 40.20374 4.28838 19986 ft 387 kts 12°
2026-04-25 13:22 40.23020 4.29542 20574 ft 389 kts 12°
2026-04-25 13:22 40.25682 4.30247 21165 ft 391 kts 12°
2026-04-25 13:23 40.31062 4.31670 22257 ft 397 kts 12°
2026-04-25 13:23 40.33785 4.32391 22775 ft 401 kts 12°
2026-04-25 13:23 40.36531 4.33119 23311 ft 404 kts 11°
2026-04-25 13:23 40.39287 4.33850 23832 ft 406 kts 12°
2026-04-25 13:24 40.42066 4.34588 24252 ft 409 kts 11°
2026-04-25 13:24 40.44863 4.35332 24714 ft 410 kts 11°
2026-04-25 13:24 40.47668 4.36078 25168 ft 412 kts 11°
2026-04-25 13:24 40.50482 4.36825 25597 ft 414 kts 11°
2026-04-25 13:25 40.53326 4.37531 26019 ft 417 kts 10°
2026-04-25 13:25 40.56186 4.38204 26428 ft 419 kts 10°
2026-04-25 13:25 40.59062 4.38872 26836 ft 421 kts 10°
2026-04-25 13:25 40.61954 4.39545 27242 ft 423 kts 10°
2026-04-25 13:26 40.64860 4.40226 27629 ft 425 kts 10°
2026-04-25 13:26 40.67778 4.40916 28013 ft 427 kts 10°
2026-04-25 13:26 40.70712 4.41612 28394 ft 429 kts 10°
2026-04-25 13:26 40.73657 4.42314 28761 ft 431 kts 10°
2026-04-25 13:27 40.76615 4.43019 29122 ft 433 kts 10°
2026-04-25 13:27 40.79589 4.43729 29481 ft 435 kts 10°
2026-04-25 13:27 40.82579 4.44444 29821 ft 437 kts 10°
2026-04-25 13:27 40.85582 4.45162 30137 ft 440 kts 10°
2026-04-25 13:28 40.88602 4.45884 30448 ft 441 kts 10°
2026-04-25 13:28 40.90598 4.46363 30695 ft 440 kts 10°
2026-04-25 13:28 40.94618 4.47342 31241 ft 438 kts 10°
2026-04-25 13:28 40.97611 4.48076 31602 ft 438 kts 10°
2026-04-25 13:29 41.00610 4.48811 31937 ft 438 kts 10°
2026-04-25 13:29 41.03604 4.49545 32279 ft 438 kts 11°
2026-04-25 13:29 41.06596 4.50278 32613 ft 438 kts 10°
2026-04-25 13:30 41.12553 4.51734 33252 ft 438 kts 11°
2026-04-25 13:30 41.15544 4.52463 33630 ft 436 kts 11°
2026-04-25 13:30 41.18562 4.53200 33979 ft 436 kts 11°
2026-04-25 13:31 41.24484 4.54648 34531 ft 435 kts 11°
2026-04-25 13:31 41.27464 4.55378 34762 ft 436 kts 10°
2026-04-25 13:31 41.30450 4.56110 34997 ft 436 kts 10°
2026-04-25 13:31 41.33439 4.56844 35203 ft 438 kts 10°
2026-04-25 13:32 41.36430 4.57579 35477 ft 437 kts 10°
2026-04-25 13:32 41.39409 4.58312 35823 ft 434 kts 10°
2026-04-25 13:32 41.42385 4.59045 36009 ft 436 kts 10°
2026-04-25 13:32 41.45371 4.59781 36145 ft 437 kts 10°
2026-04-25 13:33 41.48372 4.60521 36131 ft 439 kts 10°
2026-04-25 13:33 41.54365 4.62002 36136 ft 438 kts 10°
2026-04-25 13:34 41.60345 4.63483 36138 ft 436 kts 10°
2026-04-25 13:34 41.66303 4.64960 36134 ft 435 kts 10°
2026-04-25 13:35 41.72240 4.66436 36134 ft 434 kts
2026-04-25 13:35 41.78114 4.68353 36140 ft 434 kts 16°
2026-04-25 13:36 41.83893 4.70714 36137 ft 434 kts 16°
2026-04-25 13:36 41.89675 4.73080 36136 ft 435 kts 15°
2026-04-25 13:37 41.95446 4.75385 36130 ft 436 kts 15°
2026-04-25 13:37 42.01271 4.77686 36134 ft 437 kts 15°
2026-04-25 13:38 42.07112 4.79991 36133 ft 438 kts 15°
2026-04-25 13:38 42.13004 4.82320 36127 ft 439 kts 15°
2026-04-25 13:39 42.18834 4.84634 36116 ft 440 kts 15°
2026-04-25 13:39 42.24712 4.86967 36125 ft 441 kts 16°
2026-04-25 13:40 42.30602 4.89310 36122 ft 441 kts 15°
2026-04-25 13:40 42.36495 4.91664 36118 ft 442 kts 15°
2026-04-25 13:41 42.42386 4.94017 36116 ft 442 kts 15°
2026-04-25 13:41 42.48274 4.96370 36124 ft 441 kts 15°
2026-04-25 13:42 42.54163 4.98735 36113 ft 441 kts 15°
2026-04-25 13:42 42.60039 5.01098 36115 ft 440 kts 16°
2026-04-25 13:43 42.65907 5.03461 36110 ft 440 kts 15°
2026-04-25 13:43 42.71769 5.05825 36105 ft 439 kts 15°
2026-04-25 13:44 42.77620 5.08192 36108 ft 439 kts 15°
2026-04-25 13:44 42.83465 5.10558 36105 ft 438 kts 14°
2026-04-25 13:45 42.89308 5.12929 36105 ft 438 kts 14°
2026-04-25 13:45 42.95147 5.15305 36111 ft 438 kts 15°
2026-04-25 13:46 43.00990 5.17687 36102 ft 439 kts 15°
2026-04-25 13:46 43.06844 5.20061 36102 ft 439 kts 15°
2026-04-25 13:47 43.12705 5.22429 36093 ft 439 kts 15°
2026-04-25 13:47 43.18573 5.24807 36091 ft 440 kts 15°
2026-04-25 13:48 43.24444 5.27193 36092 ft 440 kts 15°
2026-04-25 13:48 43.30327 5.29589 36081 ft 441 kts 15°
2026-04-25 13:49 43.36225 5.31566 36067 ft 438 kts
2026-04-25 13:49 43.42222 5.30723 36073 ft 433 kts 341°
2026-04-25 13:50 43.47939 5.28097 36075 ft 433 kts 339°
2026-04-25 13:50 43.53641 5.25400 36083 ft 434 kts 340°
2026-04-25 13:51 43.59359 5.22743 36074 ft 434 kts 340°
2026-04-25 13:51 43.65087 5.20112 36074 ft 434 kts 340°
2026-04-25 13:52 43.70809 5.17487 36080 ft 433 kts 340°
2026-04-25 13:52 43.76530 5.14859 36069 ft 433 kts 339°
2026-04-25 13:53 43.82240 5.12229 36057 ft 432 kts 339°
2026-04-25 13:53 43.87944 5.09597 36047 ft 432 kts 339°
2026-04-25 13:54 43.93639 5.06963 36054 ft 431 kts 340°